FW6870 Weather Reports


Display with metric or nautical units.
time (UTC)temp
F
wind
direction
speed
MPH
gust
MPH
rain 1hr
in
rain 24hr
in
rain mn
in
humidity
%
barometer
mb
20260906001554 78 34 5.0 8.0 0.01 0.12 0.12 81 1013.2
20260905233034 79 58 3.0 5.0 0.01 0.11 0.11 81 1013.3
20260905231535 79 295 2.0 4.0 0.01 0.11 0.11 79 1013.3
20260905224535 79 0 0.0 1.0 0.01 0.10 0.10 84 1013.3
20260905221542 78 298 2.0 4.0 0.01 0.10 0.10 84 1013.2
20260905213036 77 90 3.0 6.0 0.01 0.09 0.09 84 1013.7
20260905211536 77 154 1.0 5.0 0.01 0.09 0.09 87 1013.9
20260905204535 77 261 8.0 13.0 0.07 0.09 0.09 83 1013.9
20260905203037 76 78 7.0 13.0 0.08 0.08 0.08 80 1013.7
20260905201536 75 108 6.0 17.0 0.08 0.08 0.08 84 1014.1
20260905200056 75 99 13.0 24.0 0.06 0.06 0.06 82 1013.9
20260905193040 85 53 13.0 27.0 0.00 0.00 0.00 61 1014.7
20260905191535 92 76 15.0 26.0 0.00 0.00 0.00 51 1014.1
20260905190037 95 84 3.0 5.0 0.00 0.00 0.00 47 1013.6
20260905183041 96 146 5.0 9.0 0.00 0.00 0.00 46 1013.5
20260905180040 95 209 7.0 14.0 0.00 0.00 0.00 49 1013.9
20260905174533 95 298 2.0 5.0 0.00 0.00 0.00 49 1014.1
20260905171537 93 152 6.0 10.0 0.00 0.00 0.00 50 1014.3
20260905170035 93 130 4.0 8.0 0.00 0.00 0.00 55 1014.5
20260905164537 93 215 4.0 9.0 0.00 0.00 0.00 57 1015.0
20260905163035 92 53 3.0 8.0 0.00 0.00 0.00 56 1015.2
20260905161536 91 202 3.0 10.0 0.00 0.00 0.00 59 1015.3
20260905160034 91 227 4.0 8.0 0.00 0.00 0.00 61 1015.4
20260905153037 89 232 3.0 8.0 0.00 0.00 0.00 66 1015.7
20260905151536 88 324 3.0 7.0 0.00 0.00 0.00 66 1015.7
20260905144543 86 265 3.0 7.0 0.00 0.00 0.00 71 1015.9
20260905143037 84 263 3.0 7.0 0.00 0.00 0.00 74 1015.9
20260905140035 81 308 3.0 8.0 0.00 0.00 0.00 79 1016.1
20260905134538 80 345 4.0 8.0 0.00 0.00 0.00 83 1016.3
20260905131545 78 284 5.0 9.0 0.00 0.00 0.00 85 1016.2
20260905130035 77 267 6.0 11.0 0.00 0.00 0.00 87 1016.1
20260905124535 76 302 5.0 8.0 0.00 0.00 0.00 89 1016.1
20260905123059 75 260 6.0 8.0 0.00 0.00 0.00 91 1016.1
20260905121535 74 296 5.0 8.0 0.00 0.00 0.00 92 1016.1
20260905120034 74 284 5.0 7.0 0.00 0.00 0.00 94 1015.8
20260905114534 73 288 4.0 6.0 0.00 0.00 0.00 94 1015.7
20260905113035 73 277 4.0 7.0 0.00 0.00 0.00 94 1015.5
20260905111537 73 273 4.0 6.0 0.00 0.00 0.00 94 1015.4
20260905110035 73 280 5.0 8.0 0.00 0.00 0.00 93 1015.3
20260905104531 74 271 6.0 8.0 0.00 0.00 0.00 93 1015.1
20260905103043 74 279 6.0 8.0 0.00 0.00 0.00 92 1015.0
20260905101534 75 279 7.0 9.0 0.00 0.00 0.00 92 1015.0
20260905100047 75 304 5.0 8.0 0.00 0.00 0.00 92 1015.2
20260905093034 75 309 3.0 5.0 0.00 0.00 0.00 93 1015.1
20260905084534 76 277 6.0 8.0 0.00 0.00 0.00 93 1015.1
20260905083034 76 288 4.0 7.0 0.00 0.00 0.00 93 1015.1
20260905074537 77 279 2.0 6.0 0.00 0.00 0.00 91 1015.5
20260905073035 78 242 3.0 4.0 0.00 0.00 0.00 90 1015.5
20260905071534 78 0 0.0 0.0 0.00 0.00 0.00 90 1015.6
20260905063034 78 154 2.0 6.0 0.00 0.00 0.00 89 1015.7
20260905061532 80 155 3.0 6.0 0.00 0.00 0.00 84 1015.7
20260905060048 80 15 4.0 5.0 0.00 0.00 0.00 85 1015.6
20260905053036 80 331 3.0 5.0 0.00 0.00 0.00 86 1015.8
20260905051548 81 298 3.0 5.0 0.00 0.00 0.00 84 1015.8
20260905050039 82 280 4.0 6.0 0.00 0.00 0.00 82 1015.8
20260905043038 84 239 3.0 6.0 0.00 0.00 0.00 74 1016.0
20260905041536 85 199 3.0 5.0 0.00 0.00 0.00 69 1016.3
20260905034539 85 126 0.0 3.0 0.00 0.00 0.00 73 1016.5
20260905033035 85 95 1.0 3.0 0.00 0.00 0.00 76 1016.5
20260905030035 85 67 4.0 6.0 0.00 0.00 0.00 75 1016.7
20260905024534 86 72 5.0 8.0 0.00 0.00 0.00 74 1016.7
20260905023035 86 67 5.0 7.0 0.00 0.00 0.00 74 1016.9
20260905020048 86 79 4.0 5.0 0.00 0.00 0.00 74 1016.7
20260905014537 87 63 4.0 5.0 0.00 0.00 0.00 72 1016.8
20260905010039 89 45 3.0 6.0 0.00 0.00 0.00 65 1016.6
20260905004535 90 45 3.0 6.0 0.00 0.00 0.00 62 1016.5